Location: Long Geng
(2.6167°N, 114.1333°E)
Time: 11:31:13
(UTC+00:00)

Ariane 44LP R/B - Pass Details

Date: 24 September 2021
Orbit: 475 x 17834 km, 3.6° (Epoch: 27 October)

Event Time Altitude Azimuth Distance (km) Brightness Sun altitude
Rises 09:29:13 0° 270° (W) 20,561 13.5 11.5°
Reaches altitude 10° 10:15:50 10° 268° (W) 22,105 13.8 -0.1°
Maximum altitude 12:48:36 74° 185° (S) 3,753 7.2 -38.3°
Enters shadow 12:52:20 61° 127° (SE) 3,177 6.7 -39.2°
